This is the latest recevied weather packets stored in our database for station/object OK5TVR-5. If no packets are shown the sender has not sent any weather packets the latest 10 day(s).
| Time | Temp. | Humidity | Pressure | Rain* | Wind** | Luminosity | Snow |
|---|---|---|---|---|---|---|---|
| 1777478490 | 14.44° C | 21% | 1018.3 hPa | 0 mm | - | - | - |
| 1777477591 | 13.89° C | 20% | 1018.4 hPa | 0 mm | - | - | - |
| 1777476690 | 14.44° C | 23% | 1018.3 hPa | 0 mm | - | - | - |
| 1777475789 | 15° C | 24% | 1018.2 hPa | 0 mm | - | - | - |
| 1777474886 | 15.56° C | 24% | 1018.2 hPa | 0 mm | - | 107 W/m² | - |
| 1777474885 | 15.56° C | 24% | 1018.2 hPa | 0 mm | - | 107 W/m² | - |
| 1777473984 | 15.56° C | 26% | 1018.2 hPa | 0 mm | - | 121 W/m² | - |
| 1777473984 | 15.56° C | 26% | 1018.2 hPa | 0 mm | - | 121 W/m² | - |
| 1777473084 | 15.56° C | 22% | 1018.2 hPa | 0 mm | - | 134 W/m² | - |
| 1777472182 | 16.11° C | 24% | 1017.1 hPa | 0 mm | - | 150 W/m² | - |
| 1777471282 | 16.67° C | 22% | 1017 hPa | 0 mm | - | 169 W/m² | - |
| 1777470382 | 16.67° C | 27% | 1017 hPa | 0 mm | - | 187 W/m² | - |
| 1777469481 | 16.11° C | 24% | 1017 hPa | 0 mm | - | 195 W/m² | - |
| 1777469481 | 16.11° C | 24% | 1017 hPa | 0 mm | - | 195 W/m² | - |
| 1777468580 | 16.11° C | 27% | 1017 hPa | 0 mm | - | 221 W/m² | - |
| 1777467679 | 16.67° C | 26% | 1017 hPa | 0 mm | - | 236 W/m² | - |
| 1777466778 | 16.67° C | 25% | 1017 hPa | 0 mm | - | 251 W/m² | - |
| 1777466778 | 16.67° C | 25% | 1017 hPa | 0 mm | - | 251 W/m² | - |
| 1777465877 | 16.67° C | 28% | 1017 hPa | 0 mm | - | 271 W/m² | - |
| 1777464074 | 17.22° C | 26% | 1016.9 hPa | 0 mm | - | 325 W/m² | - |
| 1777463170 | 17.22° C | 28% | 1016.9 hPa | 0 mm | - | 342 W/m² | - |
| 1777462270 | 16.67° C | 26% | 1017 hPa | 0 mm | - | 367 W/m² | - |
| 1777462270 | 16.67° C | 26% | 1017 hPa | 0 mm | - | 367 W/m² | - |
| 1777461370 | 16.67° C | 27% | 1017 hPa | 0 mm | - | 369 W/m² | - |
| 1777460469 | 17.22° C | 29% | 1016.9 hPa | 0 mm | - | 381 W/m² | - |
* Rain latest hour (hover to see other rain measurements)
** Current wind speed in m/s (hover to see current wind gust speed)